User: anonymous   Login
Location: Cabeza de los Veneras
(40.2000°N, 5.2000°W)
Time: 11:26:01
(UTC+00:00)
Language:

Okean O Rocket - Orbit

View from above orbital plane
View from above orbital plane
View from above satellite
View from above satellite

Ground track
Ground track

The orbit data is extracted from the following two-line orbital elements,

1 25861U 99039B   24164.76805862  .00000992  00000-0  13765-3 0  9996
2 25861  98.0884 210.7025 0015942 149.0540 211.1614 14.80111283342882
Epoch (UTC): 12 June 2024 18:26:00
Eccentricity: 0.0015942
inclination: 98.0884°
perigee height: 618 km
apogee height: 640 km
right ascension of ascending node: 210.7025°
argument of perigee: 149.0540°
revolutions per day: 14.80111283
mean anomaly at epoch: 211.1614°
orbit number at epoch: 34288

The dashed part of the orbit path shows where the satellite is in the earth's shadow,  

DLR